Simultaneous Nadir Overpasses (SNOs) Predictions

Prediction of SNOs between AQUA and GOES-15 Satellite Orbit:

Table of predicted SNOs for the next 14.0 days since TLE Epoch: 11/22/2014
Index Date Time (AQUA) AQUA Lat,Lon GOES-15 Lat,Lon Distance(km) Time Diff (sec)
1 11/22/2014 10:32:15 -0.15,-134.17 -0.00,-134.99 93.32 80
2 11/22/2014 22:53:39 -0.90,-139.37 0.02,-134.98 498.47 80
3 11/24/2014 10:20:03 -0.79,-131.21 0.01,-135.05 436.62 80
4 11/24/2014 22:41:27 -0.25,-136.41 0.01,-135.04 155.20 80
5 11/26/2014 22:29:14 0.37,-133.44 0.01,-135.09 187.53 80
6 11/27/2014 10:50:29 0.73,-138.60 -0.03,-135.13 394.61 80
7 11/29/2014 10:38:16 0.06,-135.64 -0.03,-135.18 52.23 80
8 12/01/2014 10:26:02 -0.58,-132.67 -0.03,-135.22 290.02 80
9 12/01/2014 22:47:26 -0.49,-137.86 0.05,-135.20 302.62 80
10 12/03/2014 22:35:11 0.14,-134.89 0.04,-135.23 39.54 80
11 12/05/2014 22:22:55 0.73,-131.91 0.03,-135.26 381.34 80




NCC Satellite Simultaneous Nadir Overpasses (SNOs) Prediction Service
